Location: Toronto
(43.6672°N, 79.4170°W)
Time: 10:02:30
(UTC-05:00)

ISS - Visible Passes

Search period start: 19 January 2017 00:00
Search period end: 29 January 2017 00:00
Orbit: 399 x 410 km, 51.6° (Epoch: 20 January)

Date Brightness Start Highest point End Pass type
(mag) Time Alt. Az. Time Alt. Az. Time Alt. Az.
19 Jan -1.9 05:59:00 27° SSW 05:59:00 27° SSW 06:01:13 10° SSE visible
20 Jan -0.2 05:09:16 11° SE 05:09:16 11° SE 05:09:26 10° SE visible
27 Jan -1.4 18:51:36 10° S 18:53:25 18° SSE 18:53:25 18° SSE visible
28 Jan -1.6 19:34:33 10° SW 19:36:20 30° SW 19:36:20 30° SW visible
